Lexington Weather

Lexington, Massachusetts, USA

44°F
5/12/2021 4:16am 
  • Lexington Conditions: Clear
  • Temperature: 44.4°F / 6.9°CColder 0.9°F than last hour.
  • Dew Point: 32.5°FIncreased 0.7°Fsince last hour.
  • Relative Humidity: 63%Increased 4.0% since last hour.
  • Wind: Wind from NW NW Calm, 10-min avg: 1 mph, gust: 4 mph
  • Barometer: 29.92 in Steady
  • Visibility: 10 miles
  • Rain Today: 0.00 in
  •   

Regional Weather Roundup
for Boston / Norton, MA

        
000
ASUS41 KBOX 072204
RWRBOX

REGIONAL WEATHER ROUNDUP
NATIONAL WEATHER SERVICE BOSTON/NORTON MA
600 PM EDT FRI MAY 07 2021

NOTE:  "FAIR" INDICATES FEW OR NO CLOUDS BELOW 12,000 FEET WITH NO 
SIGNIFICANT WEATHER AND/OR OBSTRUCTIONS TO VISIBILITY.

MAZALL-072300-
EASTERN MASSACHUSETTS
  
CITY           SKY/WX    TMP DP  RH WIND       PRES   REMARKS
BOSTON         PTSUNNY   51  39  63 E13       29.97R                  
BEVERLY        MOSUNNY   53  30  41 SE10      29.96S                  
LAWRENCE       MOSUNNY   56  27  32 VRB7      29.97R                  
BEDFORD        PTSUNNY   54  30  40 E13       29.95R                  
BLUE HILL        N/A     51  28  41 E10       29.93R                  
NORWOOD        CLOUDY    55  32  41 E8        29.95R                  
MARSHFIELD     MOSUNNY   54  41  62 E8        29.96R                  
PLYMOUTH       MOSUNNY   54  31  41 E12       29.95R                  
TAUNTON        PTSUNNY   58  33  39 E9        29.94R                  
NEW BEDFORD    CLOUDY    57  36  45 SE12      29.94R                  
$$

MAZALL-072300-
CAPE COD AND THE ISLANDS
  
CITY           SKY/WX    TMP DP  RH WIND       PRES   REMARKS
FALMOUTH       NOT AVBL                                               
HYANNIS        SUNNY     57  28  33 E9        29.93R                  
CHATHAM        SUNNY     51  37  58 E13       29.97R                  
PROVINCETOWN   SUNNY     53  37  54 E10G16    29.97R                  
NANTUCKET      SUNNY     53  38  56 E15       29.93S                  
MARTHAS VNYRD  SUNNY     54  38  54 E10       29.94R                  
$$
 
MAZALL-072300-
CENTRAL AND WESTERN MASSACHUSETTS
  
CITY           SKY/WX    TMP DP  RH WIND       PRES   REMARKS
WORCESTER      CLOUDY    53  37  54 E5        29.92R                  
FITCHBURG      PTSUNNY   56  36  47 SE9       29.94R                  
ORANGE         PTSUNNY   58  38  47 SE8       29.91R                  
SPRINGFIELD    CLOUDY    59  38  47 E9        29.88R                  
WESTFIELD      CLOUDY    60  36  40 SE7       29.88R                  
NORTH ADAMS    CLOUDY    59  33  37 SE9G20    29.86R                  
PITTSFIELD     CLOUDY    56  35  45 SE12G20   29.85R                  
$$
 
RIZALL-072300-
RHODE ISLAND
  
CITY           SKY/WX    TMP DP  RH WIND       PRES   REMARKS
PROVIDENCE     PTSUNNY   58  41  53 S14       29.93R                  
NEWPORT        MOSUNNY   54  39  57 E10       29.93R                  
BLOCK ISLAND   MOSUNNY   50  43  77 E10G17    29.93                   
SMITHFIELD       N/A     56  39  53 CALM      29.93R                  
WESTERLY       MOSUNNY   52  41  66 E14       29.93S                  
$$
 
CTZALL-072300-
CONNECTICUT
  
CITY           SKY/WX    TMP DP  RH WIND       PRES   REMARKS
BRADLEY INTL   PTSUNNY   58  35  42 S12       29.88R                  
HARTFORD       PTSUNNY   59  35  40 S13       29.89R                  
BRIDGEPORT     CLOUDY    55  47  74 E10       29.89R                  
DANBURY        PTSUNNY   59  41  51 SE14G21   29.88R                  
GROTON         MOSUNNY   53  43  68 E15       29.92S                  
NEW HAVEN      PTSUNNY   57  46  66 SE9       29.90R                  
CHESTER        PTSUNNY   57  39  51 SE9G15    29.91R                  
MERIDEN        PTSUNNY   59  38  45 VRB7      29.90R                  
WILLIMANTIC    MOSUNNY   58  34  40 S9G18     29.90R                  
OXFORD         PTSUNNY   55  42  61 SE9G18    29.89R                  
$$

MEZ002-015-021-024-NHZ003-005-008-011-012-014-VTZ005-008-072300-
NORTHERN NEW ENGLAND
  
CITY           SKY/WX    TMP DP  RH WIND       PRES   REMARKS
PORTLAND ME    MOSUNNY   52  29  41 S12G18    29.95S                  
BANGOR ME      MOSUNNY   61  25  25 N7        29.94S                  
CONCORD NH     MOSUNNY   58  30  34 E10       29.92R                  
MANCHESTER NH  PTSUNNY   59  28  30 SE12      29.91S                  
NASHUA NH      MOSUNNY   58  31  35 SE12      29.94R                  
PORTSMOUTH NH  PTSUNNY   52  23  31 SE12      29.97R                  
JAFFREY NH     PTSUNNY   55  36  48 SE6       29.91R                  
KEENE NH       CLOUDY    58  38  47 S10       29.90R                  
BURLINGTON VT  PTSUNNY   62  27  26 NW14      29.86F                  
MT. WASHINGTON PTSUNNY   34  25  69 SE8         N/A  WCI  27          
$$

NYZ052-076-072300-
EASTERN NEW YORK
  
CITY           SKY/WX    TMP DP  RH WIND       PRES   REMARKS
ALBANY         PTSUNNY   59  31  34 SE7       29.83S                  
NEW YORK CITY  PTSUNNY   60  41  49 SE12      29.85S                  
$$
 
ANZALL-072300-
MARINE OBSERVATIONS
  
STATION/POSITION TIME  TEMP    WIND        PRES    VSBY  WAVE
                       AIR SEA DIR/SP/G                  HT/PER
                 (UTC) (F)     (DEG/KT/KT) (MB)    (MI)  (FT/S)
BOSTON BUOY      2140   48 48  100/ 12/ 14 1014.6R
BUZZARDS BAY     2100          110/ 10/ 11 1014.6R
NANTUCKET SOUND  2140      52                N/A
MASS BAY-STELLWA 2104   48     110/ 10/ 12 1013.5F  1 3/4  2/ 8
ISLE OF SHOALS   2100   48     130/ 11/ 14 1014.1F
S OF BLOCK IS    2126      50                N/A           3/ 4
$$

......................KEY.........................
  SKY/WX - SKY CONDITION/PRESENT WEATHER
  TMP    - TEMPERATURE IN FAHRENHEIT
  DWPT   - DEWPOINT IN FAHRENHEIT
  RH     - RELATIVE HUMIDITY IN PERCENT
  WIND   - DIRECTION AND SPEED IN MPH
  PRES   - MEAN SEA LEVEL PRESSURE IN INCHES OF HG
  WCI    - WIND CHILL INDEX
  VSB    - VISIBILITY IN MILES
  HX     - HEAT INDEX
  TC     - TEMPERATURE IN CELSIUS
  VRB    - VARIABLE WIND DIRECTION
  N/A    - NOT AVAILABLE
  
      

Other recent Regional Weather Roundups

Wed May 12, 3:04am

Wed May 12, 2:04am

Wed May 12, 1:04am

Wed May 12, 12:05am

Tue May 11, 11:05pm

Tue May 11, 10:04pm

Tue May 11, 9:05pm

Tue May 11, 8:05pm

Tue May 11, 7:04pm

Tue May 11, 6:04pm

Tue May 11, 5:04pm

Tue May 11, 4:05pm

Tue May 11, 3:04pm

Tue May 11, 2:05pm

Tue May 11, 1:04pm

Tue May 11, 12:05pm

Tue May 11, 11:05am

Tue May 11, 10:04am

Tue May 11, 9:04am

Tue May 11, 8:04am

Tue May 11, 7:05am

Tue May 11, 6:04am

Tue May 11, 5:04am

Tue May 11, 4:04am

Tue May 11, 3:04am

Tue May 11, 2:04am

Tue May 11, 1:04am

Tue May 11, 12:04am

Mon May 10, 11:04pm

Mon May 10, 10:04pm

Mon May 10, 9:05pm

Mon May 10, 8:04pm

Mon May 10, 7:05pm

Mon May 10, 6:04pm

Mon May 10, 5:04pm

Mon May 10, 4:04pm

Mon May 10, 3:04pm

Mon May 10, 2:04pm

Mon May 10, 1:04pm

Mon May 10, 12:04pm

Mon May 10, 11:05am

Mon May 10, 10:04am

Mon May 10, 9:04am

Mon May 10, 8:04am

Mon May 10, 7:04am

Mon May 10, 6:04am

Mon May 10, 5:05am

Mon May 10, 4:04am

Mon May 10, 3:04am

Mon May 10, 2:04am

Mon May 10, 1:04am

Mon May 10, 12:04am

Sun May 9, 11:04pm

Sun May 9, 10:04pm

Sun May 9, 9:04pm

Sun May 9, 8:04pm

Sun May 9, 7:05pm

Sun May 9, 6:04pm

Sun May 9, 5:04pm

Sun May 9, 4:04pm

Sun May 9, 3:04pm

Sun May 9, 2:04pm

Sun May 9, 1:05pm

Sun May 9, 12:04pm

Sun May 9, 11:05am

Sun May 9, 10:04am

Sun May 9, 9:04am

Sun May 9, 8:04am

Sun May 9, 7:04am

Sun May 9, 6:04am

Sun May 9, 5:04am

Sun May 9, 4:04am

Sun May 9, 3:04am

Sun May 9, 2:04am

Sun May 9, 1:05am

Sun May 9, 12:04am

Sat May 8, 11:05pm

Sat May 8, 10:04pm

Sat May 8, 9:05pm

Sat May 8, 8:04pm

Sat May 8, 7:04pm

Sat May 8, 6:04pm

Sat May 8, 5:05pm

Sat May 8, 4:04pm

Sat May 8, 3:05pm

Sat May 8, 2:05pm

Sat May 8, 1:05pm

Sat May 8, 12:04pm

Sat May 8, 11:05am

Sat May 8, 10:04am

Sat May 8, 9:04am

Sat May 8, 8:04am

Sat May 8, 7:04am

Sat May 8, 6:04am

Sat May 8, 5:04am

Sat May 8, 4:04am

Sat May 8, 3:04am

Sat May 8, 2:04am

Sat May 8, 1:05am

Sat May 8, 12:04am

Fri May 7, 11:04pm

Fri May 7, 10:05pm

Fri May 7, 9:04pm

Fri May 7, 8:04pm

Fri May 7, 7:05pm

Fri May 7, 5:05pm

Fri May 7, 4:04pm

Fri May 7, 3:04pm

Fri May 7, 2:05pm

Fri May 7, 1:04pm

Fri May 7, 12:04pm

Fri May 7, 11:05am

Fri May 7, 10:04am

Fri May 7, 9:04am

Fri May 7, 8:05am

Fri May 7, 7:04am

Fri May 7, 6:04am

Fri May 7, 5:04am

Fri May 7, 4:04am

Fri May 7, 3:04am

Fri May 7, 2:05am

Fri May 7, 1:04am

Fri May 7, 12:05am

Thu May 6, 11:04pm

Thu May 6, 10:04pm

Thu May 6, 9:05pm

Thu May 6, 8:04pm

Thu May 6, 7:04pm

Thu May 6, 6:04pm

Thu May 6, 5:05pm

Thu May 6, 4:04pm

Thu May 6, 3:04pm

Thu May 6, 2:05pm

Thu May 6, 1:04pm

Thu May 6, 12:04pm

Thu May 6, 11:04am

Thu May 6, 10:04am

Thu May 6, 9:04am

Thu May 6, 8:04am

Thu May 6, 7:04am

Thu May 6, 6:04am

Thu May 6, 5:04am

Thu May 6, 4:04am

Thu May 6, 3:04am

Thu May 6, 2:05am

Thu May 6, 1:04am

Thu May 6, 12:05am

Wed May 5, 11:04pm

Wed May 5, 10:04pm

Wed May 5, 9:05pm

Wed May 5, 8:04pm

Wed May 5, 7:05pm

Wed May 5, 6:04pm

Wed May 5, 5:04pm

Wed May 5, 4:04pm

Wed May 5, 3:04pm

Wed May 5, 2:05pm

Wed May 5, 1:05pm

Wed May 5, 12:04pm

Wed May 5, 11:05am

Wed May 5, 10:04am

Wed May 5, 9:04am

Wed May 5, 8:04am

Wed May 5, 7:04am

Wed May 5, 6:05am

Wed May 5, 5:04am

Wed May 5, 4:04am

Meta data:

ID: 8223ef3a-68ae-4cc4-8235-65e8130345e2
Link: https://api.weather.gov/products/8223ef3a-68ae-4cc4-8235-65e8130345e2